User: anonymous   Login
Location: Unspecified
(0.0000°N, 0.0000°E)
Time: 17:46:12
(UTC+02:00)
Language:

AO-7 - Orbit

View from above orbital plane
View from above orbital plane
View from above satellite
View from above satellite

Ground track
Ground track

The orbit data is extracted from the following two-line orbital elements,

1  7530U 74089B   17174.92821498 -.00000044 +00000-0 +10817-5 0  9997
2  7530 101.6306 143.4798 0011771 311.2107 054.7263 12.53627483949473
Epoch (UTC): 23 June 2017 22:16:37
Eccentricity: 0.0011771
inclination: 101.6306°
perigee height: 1440 km
apogee height: 1458 km
right ascension of ascending node: 143.4798°
argument of perigee: 311.2107°
revolutions per day: 12.53627483
mean anomaly at epoch: 54.7263°
orbit number at epoch: 94947

The dashed part of the orbit path shows where the satellite is in the earth's shadow,  

DLR